Flag for Grenada Weather past 2 weeks in Saint George's, Grenada

Now
81 °F

Passing clouds.


Feels Like: 85 °F
Forecast: 75 / 78 °F
Wind: 15 mph from East

Location: Point Salines Airport

Current Time: Apr 18, 2015 at 12:09:21 AM

Latest Report: Apr 17, 2015 at 11:00 PM


Visibility: N/A

Pressure: 29.98 "Hg

Humidity: 79%

Dew point: 73 °F

Location of Saint George'sLocation

Historic Weather in Saint George's — Graph

°F

Saint George's temperature yesterday

Maximum temperature yesterday: 86 °F (at 11:00 AM)
Minimum temperature yesterday: 75 °F (at 2:00 AM)
Average temperature yesterday: 82 °F

Past Weeks' High & Low Weather Summary

 TemperatureHumidityPressure
High86 °F (Apr 7, 2:00 PM)94% (Apr 7, 2:00 AM)30.04 "Hg (Apr 7, 2:00 AM)
Low73 °F (Apr 7, 2:00 AM)66% (Apr 3, 12:00 PM)29.86 "Hg (Apr 4, 3:00 AM)
Average81 °F81%29.95 "Hg
* Reported Apr 2 10:00 PM — Apr 17 10:00 PM, Saint George's, Weather by CustomWeather, © 2015

Note: Actual official high and low records may vary slightly from our data, if they occured in-between our weather recording intervals... More about our weather records

Advertising

Saint George's weather history for previous 24 hours

 ConditionsComfort  
Time TempWeatherWind HumidityBarometerVisibility
10:00 PM
Fri, Apr 17
81 °FPassing clouds.23 mph79%29.98 "HgN/A
9:00 PM81 °FPassing clouds.18 mph84%29.95 "HgN/A
8:00 PM81 °FPassing clouds.16 mph84%29.92 "HgN/A
7:00 PM81 °FPassing clouds.15 mph84%29.92 "HgN/A
6:00 PM81 °FSprinkles. Scattered clouds.14 mph84%29.89 "HgN/A
5:00 PM82 °FPassing clouds.14 mph74%29.89 "HgN/A
4:00 PM84 °FScattered clouds.22 mph70%29.89 "HgN/A
3:00 PM86 °FPartly sunny.21 mph66%29.92 "HgN/A
2:00 PM86 °FPassing clouds.23 mph66%29.92 "HgN/A
1:00 PM86 °FPassing clouds.21 mph70%29.95 "HgN/A
12:00 PM86 °FPassing clouds.18 mph70%N/AN/A
11:00 AM86 °FPassing clouds.20 mph66%29.98 "HgN/A
10:00 AM84 °FPassing clouds.23 mph70%29.98 "HgN/A
9:00 AM84 °FPassing clouds.17 mphN/A29.98 "HgN/A
8:00 AM81 °FPassing clouds.16 mph79%29.95 "HgN/A
7:00 AM81 °FPassing clouds.14 mph79%29.95 "HgN/A
6:00 AM79 °FPassing clouds.16 mph89%29.92 "HgN/A
5:00 AM79 °FPassing clouds.17 mph89%29.92 "HgN/A
4:00 AM79 °FPassing clouds.16 mph89%29.92 "HgN/A
2:00 AM75 °FPassing clouds.16 mph94%29.92 "HgN/A
1:00 AM81 °FPassing clouds.16 mph84%29.95 "HgN/A
12:00 AM79 °FPassing clouds.14 mph89%29.98 "HgN/A
Weather by CustomWeather, © 2015

See weather overviewHow to use our weather pages